Zurück zum Katalog

OBJECT D

AktivSSO
NORAD 100146·UNKNOWN·🇨🇳 China

Gestartet Jul 23, 2026 von Jiuquan Satellite Launch Center

Loading…

Nächste Überflüge (nächste 24 Stunden)

TLE

AktuellSource: Space-Track

Epoche: Sep 14, 2026, 10:59 UTC

1 A0146U 26170D   26257.45817958  .00001266  00000-0  86777-4 0  9990
2 A0146  97.5573 263.4007 0016689  99.5617 260.7498 15.07718280  7910

Verfolge OBJECT D in Echtzeit mit AllMySat

Download on the App Store